#timestamp,LO_Frequency,Hit,StdDev 
1569780015.3,286047004.2,N
1569780035.1,286047001.3,N
1569780055.9,286047009.1,Y
1569780075.7,286047003.8,P
1569780095.6,286047000.1,N
1569780115.4,286047001.8,N
1569780135.2,286047002.7,N
1569780155.1,286047000.1,N
1569780156.0,286047000.1,N
1569780175.8,286047002.8,N
1569780195.7,286047000.5,N
1569780215.5,286046998.3,N
1569780235.3,286046998.6,N
1569780255.2,286046998.5,N
1569780275.0,286046999.6,N
1569780275.9,286046999.6,N
1569780295.7,286046998.6,N
1569780315.6,286047000.6,N
1569780335.4,286047001.6,N
1569780355.3,286046998.9,N
1569780375.1,286046998.1,N
1569780376.0,286046998.1,N
1569780395.8,286046999.8,N
1569780415.7,286047000.7,N
1569780435.5,286046998.7,N
1569780455.4,286047000.5,N
1569780475.2,286046999.5,N
1569780495.0,286046996.9,N
1569780495.9,286046996.9,N
1569780515.8,286047001.9,N
1569780535.6,286046998.6,N
1569780555.4,286046997.0,N
1569780575.3,286046997.8,N
1569780595.1,286046995.0,N
1569780615.9,286046995.7,N
1569780635.7,286046995.5,N
1569780655.5,286046997.6,N
1569780675.4,286046996.9,N
1569780695.2,286046998.0,N
1569780715.1,286046995.2,N
1569780716.0,286046995.2,N
1569780735.8,286046996.1,N
1569780755.6,286046996.4,N
1569780775.5,286046997.1,N
1569780795.3,286046995.6,N
1569780815.2,286046993.3,Y
1569780835.9,286046997.4,P
1569780855.7,286046997.3,P
1569780875.6,286046997.5,P
1569780895.4,286046994.9,Y
1569780915.2,286046997.5,P
1569780935.1,286046995.4,P
1569780936.0,286046995.4,P
1569780955.8,286046999.0,N
1569780975.7,286047001.0,N
1569780995.5,286047000.0,N
1569781015.3,286047001.9,N
1569781035.2,286047000.0,N
1569781055.0,286047002.3,N
1569781055.9,286047002.3,N
1569781075.8,286047002.1,N
1569781095.6,286047003.0,N
1569781115.4,286047001.7,N
1569781135.3,286046998.1,N
1569781155.1,286046998.1,N
1569781175.8,286046998.8,N
1569781195.7,286046998.1,N
1569781215.5,286046997.0,N
1569781235.4,286047001.1,N
1569781255.2,286046999.8,N
1569781275.0,286047001.9,N
1569781275.9,286047001.9,N
1569781295.8,286047003.9,N
1569781315.6,286047001.8,N
1569781335.5,286047000.1,N
1569781355.3,286047001.5,N
1569781375.1,286047003.1,N
1569781395.9,286047004.1,N
1569781415.7,286047003.6,N
1569781435.5,286047003.3,N
1569781455.4,286047005.4,N
1569781475.2,286047005.8,N
1569781495.1,286047005.2,N
1569781496.0,286047005.2,N
1569781515.8,286047005.3,N
1569781535.6,286047002.9,N
1569781555.5,286047004.0,N
1569781575.3,286047005.5,N
1569781595.1,286047007.4,Y
1569781615.9,286047003.7,P
1569781635.7,286047005.9,P
1569781655.6,286047004.1,N
1569781675.4,286047003.9,N
1569781695.2,286047004.2,Y
1569781715.1,286046999.9,P
1569781716.0,286046999.9,N
1569781735.8,286047001.4,N
1569781755.7,286047002.0,N
1569781775.5,286047000.6,N
1569781795.3,286047003.9,N
1569781815.2,286047005.6,Y
1569781835.0,286047004.4,P
1569781835.9,286047004.4,P
1569781855.7,286047001.7,N
1569781875.6,286047003.0,N
1569781895.4,286047004.4,Y
1569781915.3,286047000.6,P
1569781935.1,286047003.9,P
1569781936.0,286047003.9,N
1569781955.8,286047001.2,N
1569781975.7,286046999.1,N
1569781995.5,286047000.9,N
1569782015.3,286046999.0,N
1569782035.2,286046999.2,N
1569782055.0,286047000.4,N
1569782055.9,286047000.4,N
1569782075.8,286047004.2,N
1569782095.6,286047001.7,N
1569782115.4,286047003.5,N
1569782135.3,286047001.9,N
1569782155.1,286047004.2,N
1569782175.9,286046998.5,N
1569782195.7,286046999.2,N
1569782215.5,286046998.6,N
1569782235.4,286046998.3,N
1569782255.2,286047000.3,N
1569782275.0,286046998.6,N
1569782275.9,286046998.6,N
1569782295.8,286046996.0,N
1569782315.6,286046993.7,N
1569782335.5,286046993.6,N
1569782355.3,286046993.7,N
1569782375.1,286046994.1,N
1569782395.9,286046993.6,N
1569782415.7,286046996.1,N
1569782435.5,286046995.6,N
1569782455.4,286047000.7,N
1569782475.2,286046997.9,N
1569782495.0,286046995.0,N
1569782496.0,286046995.0,N
1569782515.8,286046998.7,N
1569782535.6,286047000.6,N
1569782555.5,286046999.9,N
1569782575.3,286046996.8,N
1569782595.1,286046997.2,N
1569782615.9,286046996.2,N
1569782635.7,286046996.5,N
1569782655.5,286046995.1,N
1569782675.4,286046996.5,N
1569782695.2,286046997.0,N
1569782715.1,286046998.1,N
1569782716.0,286046998.1,N
1569782735.8,286046997.4,N
1569782755.6,286047001.2,N
1569782775.5,286047001.2,N
1569782795.3,286046996.0,N
1569782815.1,286046997.7,N
1569782835.9,286047001.0,N
1569782855.7,286046997.5,N
1569782875.6,286046996.9,N
1569782895.4,286046999.5,N
1569782915.2,286046995.8,N
1569782935.1,286046996.0,N
1569782936.0,286046996.0,N
1569782955.8,286046996.2,N
1569782975.7,286046998.6,N
1569782995.5,286046998.3,N
1569783015.3,286047000.7,N
1569783035.2,286047000.9,N
1569783055.9,286047000.7,N
1569783075.7,286046999.9,N
1569783095.6,286047004.2,N
1569783115.4,286047002.3,N
1569783135.3,286047000.7,N
1569783155.1,286046996.7,N
1569783156.0,286046996.7,N
1569783175.8,286046997.7,N
1569783195.7,286046999.5,N
1569783215.5,286046995.9,N
1569783235.3,286046997.9,N
1569783255.2,286046996.5,N
1569783275.0,286046995.3,N
1569783275.9,286046995.3,N
1569783295.8,286046996.1,N
1569783315.6,286046993.7,N
1569783335.4,286046995.3,N
1569783355.3,286046997.4,N
1569783375.1,286046998.5,N
1569783395.8,286046998.9,N
1569783415.7,286047002.4,N
1569783435.5,286047004.3,N
1569783455.4,286047001.9,N
1569783475.2,286047004.1,N
1569783495.0,286046999.8,N
1569783495.9,286046999.8,N
1569783515.8,286047007.2,N
1569783535.6,286047003.8,N
1569783555.4,286046998.3,N
1569783575.3,286047000.8,N
1569783595.1,286046996.9,N
